Location: Bergnershof
(48.9468°N, 10.9431°E)
Time: 00:10:20
(UTC+00:00)

Cosmos 192 - Pass Details

Date: 03 March 2021
Orbit: 700 x 714 km, 74.0° (Epoch: 13 April)

Event Time Altitude Azimuth Distance (km) Brightness Sun altitude
Rises 19:15:22 0° 199° (SSW) 3,074 7.7 -22.3°
Reaches altitude 10° 19:17:40 10° 199° (SSW) 2,162 6.8 -22.7°
Maximum altitude 19:22:33 84° 112° (ESE) 713 4.2 -23.5°
Drops below altitude 10° 19:27:29 10° 24° (NNE) 2,184 6.8 -24.2°
Sets 19:29:49 0° 24° (NNE) 3,109 7.6 -24.6°
